This is the latest recevied weather packets stored in our database for station/object IZ1HMT-3. If no packets are shown the sender has not sent any weather packets the latest 10 day(s).
| Time | Temp. | Humidity | Pressure | Rain* | Wind** | Luminosity | Snow |
|---|---|---|---|---|---|---|---|
| 1788445490 | 31.11° C | 51% | 1019.1 hPa | - | - | - | - |
| 1788444886 | 31.67° C | 50% | 1019.2 hPa | - | - | - | - |
| 1788444284 | 31.67° C | 49% | 1019.2 hPa | - | - | - | - |
| 1788443679 | 32.22° C | 47% | 1019.2 hPa | - | - | - | - |
| 1788443075 | 32.22° C | 48% | 1019.3 hPa | - | - | - | - |
| 1788442471 | 33.33° C | 45% | 1019.1 hPa | - | - | - | - |
| 1788441264 | 31.67° C | 49% | 1019.3 hPa | - | - | - | - |
| 1788440660 | 31.67° C | 49% | 1019.3 hPa | - | - | - | - |
| 1788440057 | 31.67° C | 48% | 1019.3 hPa | - | - | - | - |
| 1788438849 | 32.78° C | 46% | 1019.2 hPa | - | - | - | - |
| 1788438244 | 33.89° C | 44% | 1019.3 hPa | - | - | - | - |
| 1788437640 | 32.78° C | 47% | 1019.4 hPa | - | - | - | - |
| 1788437036 | 32.22° C | 49% | 1019.4 hPa | - | - | - | - |
| 1788436432 | 32.22° C | 50% | 1019.7 hPa | - | - | - | - |
| 1788435224 | 32.22° C | 51% | 1019.7 hPa | - | - | - | - |
| 1788433412 | 32.22° C | 51% | 1019.8 hPa | - | - | - | - |
| 1788432800 | 31.67° C | 51% | 1019.8 hPa | - | - | - | - |
| 1788432196 | 32.22° C | 50% | 1019.9 hPa | - | - | - | - |
| 1788431592 | 32.22° C | 49% | 1019.9 hPa | - | - | - | - |
| 1788430988 | 32.78° C | 48% | 1019.9 hPa | - | - | - | - |
| 1788430384 | 33.33° C | 47% | 1019.9 hPa | - | - | - | - |
| 1788428571 | 38.89° C | 37% | 1020 hPa | - | - | - | - |
| 1788427967 | 38.33° C | 37% | 1020 hPa | - | - | - | - |
| 1788427363 | 38.33° C | 38% | 1020 hPa | - | - | - | - |
| 1788426155 | 37.78° C | 39% | 1019.8 hPa | - | - | - | - |
* Rain since midnight (hover to see other rain measurements)
** Current wind speed in m/s (hover to see current wind gust speed)